Lid_Strength_Index
6 5 5 7 8 6 9 8 10 9 8 6 5 5 4 4 4 4 4 3 3 3 2 2 2 1 1 1 1 1 1 1
6 5 6 6 5 9 8 12 13 10 10 9 7 6 5 5 5 4 4 3 3 3 2 2 1 1 1 1 1 1 1 1
6 7 7 7 8 7 7 9 11 12 9 5 6 5 6 5 5 4 4 4 3 3 2 2 1 1 1 1 1 1 0 0
8 5 5 6 7 7 10 10 9 9 10 5 5 4 5 5 5 4 4 3 3 3 2 2 2 1 1 1 1 1 0 1
9 7 6 7 6 6 7 7 9 11 9 5 4 5 5 5 5 4 4 3 3 3 3 2 2 2 1 1 1 0 0 0
10 9 7 8 7 6 7 9 9 9 8 6 5 5 4 5 4 4 4 4 3 3 3 2 2 2 1 1 1 1 0 1
7 7 7 7 7 7 8 7 9 8 8 6 5 5 4 4 4 4 4 4 4 3 3 2 2 2 2 1 1 1 1 1
9 7 7 8 7 7 7 7 7 7 7 4 4 4 5 5 5 5 4 4 3 3 3 3 2 2 2 1 1 1 1 1
11 8 8 10 8 7 7 6 7 9 6 4 5 5 5 5 5 5 4 4 3 3 3 2 2 2 2 1 1 1 1 1
11 9 14 8 5 6 7 6 6 6 5 4 4 4 4 3 4 4 4 4 3 3 3 2 2 1 1 1 1 1 1 1
12 12 10 8 7 7 7 7 5 5 5 4 4 4 4 3 3 3 3 3 3 2 2 2 2 1 1 2 1 2 2 1
11 13 15 8 6 5 6 10 5 5 5 5 5 7 5 4 3 3 2 2 2 2 2 2 2 1 2 2 2 2 2 2
11 13 10 6 6 5 12 9 6 6 5 5 6 5 4 3 3 2 2 2 2 2 2 2 1 1 2 2 2 1 1 0
10 12 14 5 6 9 7 5 5 5 5 6 5 5 4 3 3 3 3 2 2 2 2 2 1 1 2 2 1 1 0 1
9 10 7 5 6 5 4 5 5 5 4 4 5 5 4 4 3 3 3 2 2 2 2 2 1 1 2 1 1 1 1 1
8 6 6 6 5 4 4 4 4 4 4 4 4 4 4 4 3 3 3 3 2 2 2 2 1 1 1 1 1 1 1 1
8 6 5 5 4 4 4 3 3 3 3 3 4 4 4 4 3 3 3 2 2 2 2 2 1 1 1 1 1 2 1 1
9 5 6 6 4 3 4 4 3 3 3 3 3 3 3 3 3 3 3 2 2 2 2 2 1 1 1 1 1 1 1 1
6 4 4 3 3 3 3 3 3 3 3 3 3 2 3 3 3 4 2 2 3 3 3 2 2 2 1 1 1 1 1 1